Home > Weather > Colonia > Past weeks

Flag for Micronesia Weather for the Past 2 Weeks in Colonia, Yap, Micronesia

Now
79 °F

Passing clouds.


Feels Like: 82 °F
Forecast: 77 / 88 °F
Wind: 9 mph from Northeast

Location: Yap Island

Current Time: Feb 9, 2016 at 7:19:06 AM

Latest Report: Feb 9, 2016 at 6:54 AM


Visibility: 12 mi

Pressure: 29.85 "Hg

Humidity: 85%

Dew point: 74 °F

Location of ColoniaLocation

Historic Weather in Colonia — Graph

°F

Colonia Temperature Yesterday

Maximum temperature yesterday: 89 °F (at 1:51 PM)
Minimum temperature yesterday: 77 °F (at 3:55 AM)
Average temperature yesterday: 81 °F

High & Low Weather Summary for the Past Weeks

 TemperatureHumidityPressure
High92 °F (Feb 2, 1:52 PM)94% (Jan 29, 12:50 AM)30.00 "Hg (Jan 29, 12:50 AM)
Low76 °F (Feb 4, 3:51 AM)55% (Feb 5, 11:50 AM)29.75 "Hg (Feb 5, 4:50 PM)
Average82 °F77%29.88 "Hg
* Reported Jan 25 5:50 AM — Feb 9 5:55 AM, Colonia, Weather by CustomWeather, © 2016

Note: Actual official high and low records may vary slightly from our data, if they occured in-between our weather recording intervals... More about our weather records

Advertising

Colonia Weather History for the Previous 24 Hours

 ConditionsComfort  
Time TempWeatherWind HumidityBarometerVisibility
5:55 AM
Tue, Feb 9
79 °FPassing clouds.12 mph85%29.83 "Hg12 mi
4:54 AM79 °FPassing clouds.14 mph85%29.82 "Hg12 mi
3:55 AM79 °FPassing clouds.12 mph86%29.82 "Hg12 mi
2:51 AM79 °FPassing clouds.9 mph86%29.85 "Hg12 mi
1:52 AM79 °FPassing clouds.6 mph84%29.86 "Hg12 mi
12:51 AM79 °FPassing clouds.8 mph85%29.88 "Hg12 mi
11:51 PM
Mon, Feb 8
79 °FPartly cloudy.6 mph85%29.88 "Hg12 mi
10:51 PM80 °FPartly cloudy.9 mph88%29.88 "Hg12 mi
9:53 PM79 °FPartly cloudy.6 mph89%29.88 "Hg12 mi
8:55 PM80 °FPartly cloudy.7 mph84%29.87 "Hg12 mi
7:51 PM79 °FBroken clouds.5 mph88%29.86 "Hg12 mi
6:51 PM80 °FBroken clouds.5 mph85%29.85 "Hg12 mi
5:50 PM82 °FScattered showers. Cloudy.12 mph79%29.84 "Hg12 mi
4:51 PM84 °FBroken clouds.13 mph72%29.83 "Hg12 mi
3:53 PM88 °FPartly sunny.10 mph65%29.83 "Hg12 mi
2:55 PM87 °FBroken clouds.13 mph66%29.84 "Hg12 mi
1:51 PM89 °FBroken clouds.10 mph62%29.86 "Hg12 mi
12:50 PM87 °FBroken clouds.12 mph65%29.88 "Hg12 mi
11:50 AM87 °FBroken clouds.9 mph69%29.90 "Hg12 mi
10:51 AM85 °FPartly sunny.12 mph68%29.94 "Hg12 mi
9:52 AM83 °FPartly sunny.12 mph74%29.94 "Hg12 mi
8:50 AM81 °FPartly sunny.8 mph78%29.92 "Hg12 mi
7:51 AM78 °FPartly cloudy.8 mph86%29.89 "Hg12 mi
Weather by CustomWeather, © 2016

See weather overviewHow to use our weather pages